Location: Burla
(50.9568°N, 10.4983°E)
Time: 22:09:40
(UTC+00:00)

NOSS 2-2 (C) - Pass Details

Date: 18 January 2026
Orbit: 379 x 1692 km, 63.3° (Epoch: 18 February)

Event Time Altitude Azimuth Distance (km) Brightness Sun altitude
Rises 06:20:22 0° 222° (SW) 2,484 6.5 -8.0°
Reaches altitude 10° 06:22:36 10° 222° (SW) 1,511 5.4 -7.7°
Maximum altitude 06:25:48 88° 133° (SE) 395 2.6 -7.2°
Drops below altitude 10° 06:28:47 10° 45° (NE) 1,406 5.7 -6.8°
Sets 06:30:47 0° 45° (NE) 2,288 6.8 -6.5°
